Location: Fort Wayne
(41.1310°N, 85.1290°W)
Time: 09:21:03
(UTC-05:00)

Amateur Radio Satellites - All Passes

Search period start: 19 December 2014 08:51
Search period end: 20 December 2014 08:51
Location: Fort Wayne, 41.1310°N, 85.1290°W

Satellite Date Start Highest point End Downlink Frequencies (MHz)
Time Altitude Azimuth
CANX-2 19 Dec 08:55:38 08:59:20 27° 95° (E) 09:03:00 2200.000
Cubesat XI-IV 19 Dec 09:00:48 09:02:12 11° 303° (WNW) 09:03:36 437.490
GOMX 1 19 Dec 09:02:03 09:06:02 26° 96° (E) 09:10:13 467.674
HO-68 19 Dec 09:09:54 09:16:42 45° 99° (E) 09:23:26 435.675
TIGRISAT 19 Dec 09:19:18 09:21:40 15° 63° (ENE) 09:24:03 435.000
COMPASS 1 19 Dec 09:21:54 09:25:49 35° 97° (E) 09:29:41 437.405
VERMONT LUNAR 19 Dec 09:22:00 09:24:57 25° 206° (SSW) 09:27:53 437.305
SEEDS 19 Dec 09:25:04 09:29:12 45° 99° (E) 09:33:18 437.485
CUTE 1.7 + AOD 2 19 Dec 09:26:16 09:30:32 55° 100° (E) 09:34:45 437.475
PHONESAT 2.4 19 Dec 09:27:49 09:31:06 32° 203° (SSW) 09:34:23 2401.200-2431.200
DX 1 19 Dec 09:33:05 09:35:35 15° 92° (E) 09:38:05 434.975-435.025
DOVE 4 19 Dec 09:34:35 09:39:05 41° 98° (E) 09:43:48 437.250
POPSAT HIP 1 19 Dec 09:38:22 09:40:40 15° 64° (ENE) 09:42:59 437.405
MaSat-1 19 Dec 09:41:20 09:43:40 83° 115° (ESE) 09:45:56 437.345
UNISAT 6 19 Dec 09:46:00 09:49:42 27° 68° (ENE) 09:53:28 437.425
YUBILEINY 19 Dec 09:48:09 09:52:55 16° 59° (ENE) 09:57:39 435.215
DELFI C3 19 Dec 09:48:28 09:51:51 24° 95° (E) 09:55:13 145.870
CUSAT 1 19 Dec 09:54:05 09:57:15 34° 89° (E) 10:01:20 437.405
Oscar 11 19 Dec 09:57:11 10:01:16 37° 98° (E) 10:05:19 145.826/435.025
HUMSAT D 19 Dec 10:02:27 10:03:42 11° 90° (E) 10:04:57 437.325/437.525
UKube-1 19 Dec 10:04:48 10:08:42 32° 97° (E) 10:12:35 .
BRITE-PL 19 Dec 10:05:01 10:09:32 54° 286° (WNW) 10:14:24 437.365/2234.400
DUCHIFAT 1 19 Dec 10:05:43 10:09:17 28° 69° (ENE) 10:12:53 145.980
CUBEBUG 2 19 Dec 10:05:50 10:09:59 32° 96° (E) 10:14:12 437.445
CINEMA 3 19 Dec 10:11:40 10:16:20 60° 101° (E) 10:21:10 145.822/145.860
BUGSAT 1 19 Dec 10:12:33 10:15:59 26° 69° (ENE) 10:19:24 437.445
ANTELSAT 19 Dec 10:17:03 10:21:19 59° 74° (ENE) 10:25:44 437.575/2403.000
QB50P2 19 Dec 10:17:42 10:21:37 38° 71° (ENE) 10:25:33 145.880/145.840
VELOX 1 19 Dec 10:20:46 10:23:37 17° 93° (E) 10:26:28 145.980
AAUSAT CUBESAT 2 19 Dec 10:23:09 10:27:17 52° 286° (WNW) 10:31:23 437.432
ZACube-1 19 Dec 10:23:19 10:27:28 35° 97° (E) 10:31:39 437.345
POLYITAN 1 19 Dec 10:25:49 10:29:51 47° 73° (ENE) 10:33:55 437.675
NANOSAT C BR1 19 Dec 10:29:25 10:33:29 51° 73° (ENE) 10:37:35 145.865
CANX-2 19 Dec 10:31:34 10:35:10 26° 291° (WNW) 10:38:46 2200.000
DANDE 19 Dec 10:38:03 10:41:20 85° 279° (W) 10:45:46 436.750
GOMX 1 19 Dec 10:39:56 10:44:09 34° 289° (WNW) 10:48:37 467.674
QB50P1 19 Dec 10:43:24 10:47:36 76° 76° (ENE) 10:51:49 145.935-145.965
UWE-3 19 Dec 10:47:01 10:51:36 75° 102° (ESE) 10:56:16 435.000/436.395/437.385
FUNcube-1 19 Dec 10:50:18 10:54:49 68° 101° (E) 10:59:22 145.935
O/OREOS (USA 219) 19 Dec 10:52:05 10:56:21 40° 63° (ENE) 11:00:37 437.305
TIGRISAT 19 Dec 10:53:41 10:57:54 55° 260° (W) 11:02:17 435.000
HO-68 19 Dec 10:57:52 11:04:14 36° 297° (WNW) 11:10:34 435.675
COMPASS 1 19 Dec 10:58:09 11:01:18 20° 293° (WNW) 11:04:26 437.405
AISAT 19 Dec 11:01:56 11:06:14 48° 100° (E) 11:10:31 437.250
SEEDS 19 Dec 11:01:58 11:04:39 17° 295° (WNW) 11:07:21 437.485
CUTE 1.7 + AOD 2 19 Dec 11:03:43 11:05:59 14° 296° (WNW) 11:08:15 437.475
DX 1 19 Dec 11:07:54 11:12:05 48° 288° (WNW) 11:16:15 434.975-435.025
POPSAT HIP 1 19 Dec 11:12:04 11:16:09 50° 260° (W) 11:20:15 437.405
DOVE 4 19 Dec 11:13:00 11:16:37 22° 293° (WNW) 11:20:23 437.250
CUBEBUG 1 19 Dec 11:14:05 11:17:35 24° 95° (E) 11:21:05 437.445
RS-15 19 Dec 11:17:00 11:25:59 31° 104° (ESE) 11:34:54 29.354- 29.394
UNISAT 6 19 Dec 11:22:45 11:26:26 27° 265° (W) 11:30:12 437.425
DELFI C3 19 Dec 11:23:36 11:27:04 26° 291° (WNW) 11:30:31 145.870
50 SAT 19 Dec 11:25:15 11:29:25 79° 102° (ESE) 11:33:34 437.505
Oscar 11 19 Dec 11:34:00 11:37:10 20° 294° (WNW) 11:40:20 145.826/435.025
HUMSAT D 19 Dec 11:35:36 11:39:54 64° 285° (WNW) 11:44:11 437.325/437.525
CUSAT 1 19 Dec 11:38:25 11:40:46 15° 299° (WNW) 11:43:30 437.405
UKube-1 19 Dec 11:41:18 11:44:41 23° 293° (WNW) 11:48:03 .
DUCHIFAT 1 19 Dec 11:41:43 11:45:07 24° 265° (W) 11:48:33 145.980
YUBILEINY 19 Dec 11:42:36 11:51:19 77° 81° (E) 12:00:01 435.215
CUBEBUG 2 19 Dec 11:42:43 11:46:33 26° 292° (WNW) 11:50:27 437.445
BUGSAT 1 19 Dec 11:48:05 11:51:26 24° 264° (W) 11:54:46 437.445
CINEMA 3 19 Dec 11:50:18 11:53:05 16° 296° (WNW) 11:55:57 145.822/145.860
ESTCUBE 1 19 Dec 11:53:00 11:57:30 69° 102° (ESE) 12:01:57 437.505/2401.250
QB50P2 19 Dec 11:54:51 11:57:41 17° 267° (W) 12:00:31 145.880/145.840
VELOX 1 19 Dec 11:56:13 12:00:25 44° 289° (WNW) 12:04:36 145.980
ANTELSAT 19 Dec 11:56:46 11:58:33 12° 270° (W) 12:00:21 437.575/2403.000
ZACube-1 19 Dec 12:00:05 12:03:39 23° 293° (WNW) 12:07:14 437.345
POLYITAN 1 19 Dec 12:03:49 12:06:03 14° 268° (W) 12:08:19 437.675
NANOSAT C BR1 19 Dec 12:07:43 12:09:40 13° 269° (W) 12:11:38 145.865
Oscar 19 19 Dec 12:24:04 12:28:14 26° 65° (ENE) 12:32:25 437.125/150
UWE-3 19 Dec 12:25:47 12:27:33 12° 298° (WNW) 12:29:20 435.000/436.395/437.385
SPROUT 19 Dec 12:27:42 12:31:40 35° 97° (E) 12:35:37 437.525
FUNcube-1 19 Dec 12:28:34 12:30:36 13° 297° (WNW) 12:32:39 145.935
TISAT 1 19 Dec 12:29:13 12:33:11 39° 98° (E) 12:37:08 437.305
O/OREOS (USA 219) 19 Dec 12:32:14 12:35:26 19° 259° (W) 12:38:38 437.305
ITAMSAT 1 19 Dec 12:38:32 12:41:04 14° 59° (ENE) 12:43:35 435.822/435.867
AISAT 19 Dec 12:39:40 12:42:28 17° 296° (WNW) 12:45:16 437.250
CUBEBUG 1 19 Dec 12:50:11 12:53:57 30° 291° (WNW) 12:57:43 437.445
BEESAT 19 Dec 13:01:54 13:04:15 14° 91° (E) 13:06:35 436.000
BEESAT 2 19 Dec 13:15:46 13:18:24 17° 110° (ESE) 13:21:03 435.950
RS-15 19 Dec 13:26:23 13:37:18 73° 306° (NW) 13:48:19 29.354- 29.394
ESTCUBE 1 19 Dec 13:31:54 13:33:47 13° 298° (WNW) 13:35:40 437.505/2401.250
YUBILEINY 19 Dec 13:41:01 13:47:06 22° 281° (W) 13:53:12 435.215
PCSat 19 Dec 14:00:47 14:05:41 37° 111° (ESE) 14:10:37 145.827
Gurwin Techsat 1B 19 Dec 14:01:48 14:06:52 48° 71° (ENE) 14:11:57 435.225
Oscar 19 19 Dec 14:02:34 14:07:21 39° 262° (W) 14:12:11 437.125/150
SPROUT 19 Dec 14:04:21 14:07:31 21° 293° (WNW) 14:10:42 437.525
TISAT 1 19 Dec 14:05:49 14:08:43 18° 294° (WNW) 14:11:37 437.305
ITUPSAT 1 19 Dec 14:12:18 14:17:04 71° 102° (ESE) 14:21:48 437.325
SWISSCUBE 19 Dec 14:12:24 14:17:12 79° 103° (ESE) 14:21:56 437.505
AIST 2 19 Dec 14:12:48 14:16:33 31° 114° (ESE) 14:20:21 435.215
BEESAT 3 19 Dec 14:13:29 14:17:34 79° 121° (ESE) 14:21:44 437.485
ITAMSAT 1 19 Dec 14:14:40 14:19:52 80° 257° (WSW) 14:25:04 435.822/435.867
KKS-1 19 Dec 14:27:15 14:30:38 21° 94° (E) 14:34:01 437.445
STARS 19 Dec 14:27:28 14:29:45 14° 91° (E) 14:32:02 437.465
BEESAT 19 Dec 14:37:47 14:42:30 63° 287° (WNW) 14:47:11 436.000
AUBIESAT-1 19 Dec 14:40:39 14:44:54 48° 104° (ESE) 14:48:45 437.475
ISS 19 Dec 14:42:44 14:46:01 71° 142° (SE) 14:49:18 145.825
JAS-2 19 Dec 14:52:04 14:54:37 12° 54° (NE) 14:57:05 435.910
BEESAT 2 19 Dec 14:52:18 14:56:16 46° 307° (NW) 15:00:19 435.950
HORYU 2 19 Dec 14:54:52 14:59:15 59° 73° (ENE) 15:03:41 437.375
AO-7 19 Dec 14:57:16 15:04:54 42° 61° (ENE) 15:12:34 29.400- 29.500
M-CUBED/EXP-1 PRIME 19 Dec 15:05:10 15:09:37 79° 289° (WNW) 15:13:39 437.505
GONETS M04 19 Dec 15:42:14 15:48:02 19° 62° (ENE) 15:53:47
Gurwin Techsat 1B 19 Dec 15:43:04 15:47:03 21° 267° (W) 15:51:04 435.225
RS-15 19 Dec 15:43:11 15:52:00 27° 334° (NNW) 16:01:00 29.354- 29.394
PCSat 19 Dec 15:44:13 15:49:05 33° 309° (NW) 15:54:00 145.827
AIST 2 19 Dec 15:51:30 15:55:10 28° 312° (NW) 15:58:53 435.215
ITUPSAT 1 19 Dec 15:52:04 15:54:21 14° 299° (WNW) 15:56:38 437.325
SWISSCUBE 19 Dec 15:52:32 15:54:23 12° 300° (WNW) 15:56:13 437.505
BEESAT 3 19 Dec 15:54:07 15:56:17 14° 320° (NW) 15:58:29 437.485
STARS 19 Dec 16:02:13 16:06:33 54° 287° (WNW) 16:10:52 437.465
KKS-1 19 Dec 16:03:17 16:07:22 36° 290° (WNW) 16:11:27 437.445
AIST 1 19 Dec 16:15:47 16:18:51 19° 87° (E) 16:21:55
AUBIESAT-1 19 Dec 16:16:36 16:19:23 17° 303° (WNW) 16:22:02 437.475
ISS 19 Dec 16:20:14 16:22:52 22° 340° (NNW) 16:25:31 145.825
JAS-2 19 Dec 16:30:55 16:38:28 61° 72° (ENE) 16:45:23 435.910
HORYU 2 19 Dec 16:34:19 16:36:18 13° 269° (W) 16:38:18 437.375
AO-7 19 Dec 16:49:43 16:57:34 46° 260° (W) 17:05:31 29.400- 29.500
Cubesat XI-IV 19 Dec 17:01:23 17:05:25 22° 64° (ENE) 17:09:27 437.490
MOZHAYETS 4 19 Dec 17:03:20 17:07:29 32° 96° (E) 17:11:35
CUTE-I 19 Dec 17:33:51 17:38:49 42° 69° (ENE) 17:43:48 437.470
GONETS M04 19 Dec 17:37:21 17:46:11 89° 83° (E) 17:54:53
AIST 1 19 Dec 17:52:12 17:56:14 35° 283° (WNW) 18:00:16
ISS 19 Dec 17:58:42 18:00:23 13° 0° (N) 18:02:03 145.825
RS-15 19 Dec 18:01:47 18:09:41 21° 11° (N) 18:17:45 29.354- 29.394
PRISM 19 Dec 18:14:52 18:18:19 25° 96° (E) 18:21:43 437.425
JAS-2 19 Dec 18:17:26 18:23:43 27° 266° (W) 18:29:40 435.910
CUBESAT XI-V 19 Dec 18:23:50 18:26:44 16° 91° (E) 18:29:37 437.345
Cubesat XI-IV 19 Dec 18:40:00 18:45:09 49° 260° (W) 18:50:19 437.490
MOZHAYETS 4 19 Dec 18:40:46 18:44:33 26° 293° (WNW) 18:48:19
MaSat-1 19 Dec 19:12:08 19:14:31 63° 245° (WSW) 19:17:02 437.345
CUTE-I 19 Dec 19:14:44 19:19:01 25° 266° (W) 19:23:19 437.470
DANDE 19 Dec 19:35:09 19:40:07 18° 65° (ENE) 19:45:31 436.750
ISS 19 Dec 19:35:15 19:37:53 22° 20° (NNE) 19:40:31 145.825
GONETS M04 19 Dec 19:36:24 19:41:41 18° 283° (WNW) 19:46:58
HO-68 19 Dec 19:38:40 19:44:57 34° 62° (ENE) 19:51:15 435.675
BRITE-PL 19 Dec 19:40:09 19:42:39 16° 65° (ENE) 19:45:08 437.365/2234.400
STRAND 1 19 Dec 19:42:36 19:47:43 85° 104° (ESE) 19:52:48 437.568
CANX-2 19 Dec 19:49:20 19:52:30 21° 67° (ENE) 19:55:41 2200.000
PRISM 19 Dec 19:50:18 19:53:47 26° 292° (WNW) 19:57:15 437.425
CUBESAT XI-V 19 Dec 20:00:00 20:04:26 48° 288° (WNW) 20:08:50 437.345
GOMX 1 19 Dec 20:11:25 20:14:44 24° 68° (ENE) 20:18:05 467.674
COMPASS 1 19 Dec 20:13:57 20:17:23 25° 68° (ENE) 20:20:51 437.405
RS-15 19 Dec 20:15:23 20:26:01 45° 43° (NE) 20:37:02 29.354- 29.394
SEEDS 19 Dec 20:17:36 20:21:22 32° 70° (ENE) 20:25:11 437.485
CUTE 1.7 + AOD 2 19 Dec 20:19:22 20:23:19 39° 71° (ENE) 20:27:19 437.475
DX 1 19 Dec 20:29:30 20:31:50 14° 63° (ENE) 20:34:10 434.975-435.025
SO-50 19 Dec 20:30:16 20:31:28 11° 106° (ESE) 20:32:41 436.795
CUSAT 1 19 Dec 20:30:28 20:37:48 48° 75° (ENE) 20:45:56 437.405
DELFI C3 19 Dec 20:37:55 20:40:34 17° 66° (ENE) 20:43:13 145.870
DOVE 4 19 Dec 20:41:14 20:45:01 36° 71° (ENE) 20:48:53 437.250
Oscar 11 19 Dec 20:52:13 20:55:58 30° 69° (ENE) 20:59:45 145.826/435.025
UKube-1 19 Dec 21:00:07 21:03:50 29° 68° (ENE) 21:07:33 .
CUBEBUG 2 19 Dec 21:05:03 21:08:28 25° 68° (ENE) 21:11:56 437.445
ISS 19 Dec 21:11:29 21:14:44 69° 218° (SW) 21:17:59 145.825
AAUSAT CUBESAT 2 19 Dec 21:14:03 21:18:15 79° 258° (WSW) 21:22:30 437.432
CINEMA 3 19 Dec 21:14:07 21:18:07 50° 73° (ENE) 21:22:14 145.822/145.860
DANDE 19 Dec 21:16:47 21:24:24 82° 80° (E) 21:33:06 436.750
BRITE-PL 19 Dec 21:16:54 21:20:53 42° 261° (W) 21:24:49 437.365/2234.400
VELOX 1 19 Dec 21:19:16 21:22:01 16° 64° (ENE) 21:24:46 145.980
ZACube-1 19 Dec 21:20:07 21:23:36 26° 68° (ENE) 21:27:09 437.345
STRAND 1 19 Dec 21:24:05 21:26:10 13° 301° (WNW) 21:28:15 437.568
CANX-2 19 Dec 21:24:18 21:28:12 35° 263° (W) 21:32:09 2200.000
HO-68 19 Dec 21:25:33 21:32:25 48° 260° (W) 21:39:20 435.675
BEESAT 2 19 Dec 21:35:25 21:37:45 14° 41° (NE) 21:40:04 435.950
UWE-3 19 Dec 21:44:36 21:48:41 58° 74° (ENE) 21:52:53 435.000/436.395/437.385
FUNcube-1 19 Dec 21:46:32 21:50:33 50° 73° (ENE) 21:54:41 145.935
GOMX 1 19 Dec 21:49:18 21:52:48 26° 264° (W) 21:56:19 467.674
COMPASS 1 19 Dec 21:49:23 21:53:00 27° 264° (W) 21:56:39 437.405
SEEDS 19 Dec 21:53:59 21:57:14 21° 266° (W) 22:00:31 437.485
CUTE 1.7 + AOD 2 19 Dec 21:56:30 21:59:24 18° 268° (W) 22:02:19 437.475
AISAT 19 Dec 22:00:09 22:04:20 43° 71° (ENE) 22:08:32 437.250
DX 1 19 Dec 22:03:21 22:07:36 55° 259° (W) 22:11:53 434.975-435.025
SO-50 19 Dec 22:06:44 22:11:16 80° 303° (WNW) 22:15:58 436.795
CUBEBUG 1 19 Dec 22:10:53 22:14:09 21° 66° (ENE) 22:17:26 437.445
ANTELSAT 19 Dec 22:10:54 22:13:19 14° 90° (E) 22:15:44 437.575/2403.000
DELFI C3 19 Dec 22:11:37 22:15:30 40° 262° (W) 22:19:25 145.870
50 SAT 19 Dec 22:13:36 22:17:27 47° 73° (ENE) 22:21:21 437.505
CUSAT 1 19 Dec 22:13:45 22:20:47 40° 270° (W) 22:28:30 437.405
DOVE 4 19 Dec 22:20:16 22:22:59 17° 268° (W) 22:25:43 437.250
HUMSAT D 19 Dec 22:27:43 22:31:50 89° 78° (ENE) 22:36:03 437.325/437.525
RS-15 19 Dec 22:27:51 22:38:51 61° 246° (WSW) 22:50:22 29.354- 29.394
Oscar 11 19 Dec 22:28:37 22:32:07 24° 265° (W) 22:35:40 145.826/435.025
QB50P1 19 Dec 22:30:53 22:32:44 13° 91° (E) 22:34:34 145.935-145.965
BEESAT 3 19 Dec 22:33:25 22:37:28 47° 53° (NE) 22:41:27 437.485
AIST 2 19 Dec 22:34:49 22:38:20 24° 46° (NE) 22:41:49 435.215
UKube-1 19 Dec 22:36:22 22:39:57 25° 264° (W) 22:43:33 .
CUBEBUG 2 19 Dec 22:41:32 22:45:05 27° 265° (W) 22:48:42 437.445
TIGRISAT 19 Dec 22:45:39 22:49:50 31° 96° (E) 22:54:00 435.000
PCSat 19 Dec 22:48:30 22:53:19 31° 50° (NE) 22:58:06 145.827
YUBILEINY 19 Dec 22:51:06 22:56:07 17° 77° (ENE) 23:01:07 435.215
ESTCUBE 1 19 Dec 22:52:35 22:57:04 63° 74° (ENE) 23:01:34 437.505/2401.250
CINEMA 3 19 Dec 22:53:51 22:55:42 13° 270° (W) 22:57:34 145.822/145.860
VELOX 1 19 Dec 22:53:55 22:58:12 49° 260° (W) 23:02:30 145.980
ZACube-1 19 Dec 22:56:27 22:59:56 25° 265° (W) 23:03:28 437.345
POPSAT HIP 1 19 Dec 22:58:01 23:01:34 25° 96° (E) 23:05:08 437.405
DANDE 19 Dec 23:01:40 23:07:18 22° 275° (W) 23:13:24 436.750
BEESAT 2 19 Dec 23:12:20 23:16:32 77° 239° (WSW) 23:20:40 435.950
UNISAT 6 19 Dec 23:13:56 23:18:37 63° 101° (E) 23:23:18 437.425
TISAT 1 19 Dec 23:22:05 23:25:45 30° 69° (ENE) 23:29:24 437.305
SPROUT 19 Dec 23:22:19 23:25:56 28° 69° (ENE) 23:29:35 437.525
UWE-3 19 Dec 23:24:20 23:25:39 11° 271° (W) 23:26:58 435.000/436.395/437.385
FUNcube-1 19 Dec 23:25:17 23:27:15 13° 270° (W) 23:29:14 145.935
DUCHIFAT 1 19 Dec 23:26:05 23:30:15 52° 100° (E) 23:34:25 145.980
BUGSAT 1 19 Dec 23:29:52 23:33:46 45° 99° (E) 23:37:41 437.445
AISAT 19 Dec 23:38:18 23:41:10 17° 267° (W) 23:44:03 437.250
QB50P2 19 Dec 23:38:52 23:43:09 76° 102° (ESE) 23:47:25 145.880/145.840
SWISSCUBE 19 Dec 23:45:36 23:46:38 11° 59° (ENE) 23:47:39 437.505
ANTELSAT 19 Dec 23:45:49 23:50:29 61° 286° (WNW) 23:55:08 437.575/2403.000
CUBEBUG 1 19 Dec 23:46:18 23:50:18 35° 262° (W) 23:54:19 437.445
POLYITAN 1 19 Dec 23:47:21 23:51:39 86° 284° (WNW) 23:55:57 437.675
SO-50 19 Dec 23:50:16 23:52:37 14° 324° (NW) 23:55:00 436.795
NANOSAT C BR1 19 Dec 23:50:27 23:54:43 81° 284° (WNW) 23:58:58 145.865
50 SAT 19 Dec 23:51:05 23:52:57 13° 269° (W) 23:54:49 437.505
QB50P1 20 Dec 00:04:47 00:08:57 55° 286° (WNW) 00:13:06 145.935-145.965
BEESAT 20 Dec 00:08:31 00:11:34 17° 63° (ENE) 00:14:38 436.000
BEESAT 3 20 Dec 00:12:39 00:15:15 16° 250° (WSW) 00:17:51 437.485
AIST 2 20 Dec 00:13:05 00:17:04 38° 244° (WSW) 00:21:00 435.215
M-CUBED/EXP-1 PRIME 20 Dec 00:20:45 00:23:56 18° 58° (ENE) 00:27:08 437.505
TIGRISAT 20 Dec 00:22:30 00:26:27 27° 292° (WNW) 00:30:25 435.000
PCSat 20 Dec 00:31:46 00:36:48 40° 249° (WSW) 00:41:47 145.827
ESTCUBE 1 20 Dec 00:32:27 00:34:20 12° 270° (W) 00:36:14 437.505/2401.250
POPSAT HIP 1 20 Dec 00:33:49 00:37:25 27° 291° (WNW) 00:41:01 437.405
YUBILEINY 20 Dec 00:42:49 00:51:35 88° 96° (E) 01:00:21 435.215
RS-15 20 Dec 00:46:05 00:48:50 11° 266° (W) 00:51:37 29.354- 29.394
UNISAT 6 20 Dec 00:52:17 00:54:53 15° 297° (WNW) 00:57:29 437.425
TISAT 1 20 Dec 00:58:15 01:01:34 22° 265° (W) 01:04:54 437.305
SPROUT 20 Dec 00:58:27 01:01:59 25° 265° (W) 01:05:32 437.525
DUCHIFAT 1 20 Dec 01:03:24 01:05:41 14° 296° (WNW) 01:07:58 145.980
O/OREOS (USA 219) 20 Dec 01:04:11 01:08:27 47° 107° (ESE) 01:12:44 437.305
BUGSAT 1 20 Dec 01:06:37 01:08:54 15° 295° (WNW) 01:11:12 437.445
QB50P2 20 Dec 01:17:43 01:18:26 10° 299° (WNW) 01:19:09 145.880/145.840
SWISSCUBE 20 Dec 01:18:55 01:23:43 89° 76° (ENE) 01:28:33 437.505
ITUPSAT 1 20 Dec 01:19:01 01:23:50 81° 75° (ENE) 01:28:39 437.325
STARS 20 Dec 01:25:31 01:27:34 13° 62° (ENE) 01:29:38 437.465
KKS-1 20 Dec 01:26:02 01:29:14 20° 65° (ENE) 01:32:27 437.445
AUBIESAT-1 20 Dec 01:28:36 01:33:23 68° 69° (ENE) 01:38:16 437.475
BEESAT 20 Dec 01:44:16 01:48:58 55° 259° (W) 01:53:41 436.000
M-CUBED/EXP-1 PRIME 20 Dec 01:53:38 01:58:23 63° 254° (WSW) 02:03:18 437.505
Oscar 19 20 Dec 02:13:42 02:18:55 74° 103° (ESE) 02:24:06 437.125/150
Gurwin Techsat 1B 20 Dec 02:18:58 02:22:40 19° 92° (E) 02:26:22 435.225
ITAMSAT 1 20 Dec 02:27:52 02:32:38 36° 98° (E) 02:37:22 435.822/435.867
YUBILEINY 20 Dec 02:43:37 02:49:35 20° 297° (WNW) 02:55:34 435.215
O/OREOS (USA 219) 20 Dec 02:45:03 02:48:07 18° 305° (NW) 02:51:12 437.305
HORYU 2 20 Dec 02:48:47 02:50:25 12° 90° (E) 02:52:03 437.375
STARS 20 Dec 02:59:12 03:03:32 62° 259° (W) 03:07:53 437.465
KKS-1 20 Dec 03:01:28 03:05:36 39° 262° (W) 03:09:46 437.445
ITUPSAT 1 20 Dec 03:01:42 03:02:17 10° 271° (W) 03:02:53 437.325
AO-7 20 Dec 03:03:43 03:04:40 10° 86° (E) 03:05:37 29.400- 29.500
AUBIESAT-1 20 Dec 03:06:11 03:08:44 14° 265° (W) 03:11:18 437.475
VERMONT LUNAR 20 Dec 03:48:09 03:51:14 28° 155° (SSE) 03:54:19 437.305
Oscar 19 20 Dec 03:54:46 03:57:37 15° 300° (WNW) 04:00:27 437.125/150
Gurwin Techsat 1B 20 Dec 03:57:47 04:02:57 54° 288° (WNW) 04:08:05 435.225
PHONESAT 2.4 20 Dec 03:58:34 04:01:32 24° 153° (SSE) 04:04:31 2401.200-2431.200
AIST 1 20 Dec 03:59:16 04:03:28 53° 79° (E) 04:07:37
MOZHAYETS 4 20 Dec 04:05:24 04:09:27 31° 69° (ENE) 04:13:32
ITAMSAT 1 20 Dec 04:07:38 04:11:58 28° 294° (WNW) 04:16:17 435.822/435.867
HORYU 2 20 Dec 04:23:01 04:27:31 66° 286° (WNW) 04:31:59 437.375
GONETS M04 20 Dec 04:44:37 04:50:40 21° 79° (ENE) 04:56:42
AO-7 20 Dec 04:50:40 04:58:59 64° 104° (ESE) 05:07:14 29.400- 29.500
SO-50 20 Dec 04:58:57 05:01:56 16° 39° (NE) 05:04:56 436.795
PRISM 20 Dec 05:06:04 05:09:11 20° 66° (ENE) 05:12:17 437.425
STRAND 1 20 Dec 05:21:58 05:24:57 16° 61° (ENE) 05:27:56 437.568
VERMONT LUNAR 20 Dec 05:25:47 05:29:18 73° 172° (S) 05:32:50 437.305
JAS-2 20 Dec 05:26:44 05:32:10 46° 98° (E) 05:37:11 435.910
CUBESAT XI-V 20 Dec 05:27:42 05:30:45 17° 64° (ENE) 05:33:47 437.345
PHONESAT 2.4 20 Dec 05:36:19 05:39:55 67° 169° (S) 05:43:31 2401.200-2431.200
AIST 1 20 Dec 05:38:57 05:40:35 12° 276° (W) 05:42:13
MOZHAYETS 4 20 Dec 05:42:44 05:46:39 27° 265° (W) 05:50:35
CUTE-I 20 Dec 05:52:10 05:55:26 16° 91° (E) 05:58:41 437.470
GONETS M04 20 Dec 06:37:32 06:46:23 80° 278° (W) 06:55:17
SO-50 20 Dec 06:38:16 06:43:11 89° 58° (ENE) 06:48:06 436.795
PRISM 20 Dec 06:40:36 06:44:28 35° 262° (W) 06:48:22 437.425
AO-7 20 Dec 06:44:12 06:51:13 31° 303° (WNW) 06:58:12 29.400- 29.500
Cubesat XI-IV 20 Dec 06:57:08 07:02:27 68° 102° (ESE) 07:07:44 437.490
STRAND 1 20 Dec 06:58:29 07:03:34 68° 258° (WSW) 07:08:40 437.568
CUBESAT XI-V 20 Dec 07:03:14 07:07:47 50° 261° (W) 07:12:20 437.345
VERMONT LUNAR 20 Dec 07:04:05 07:07:36 73° 189° (S) 07:11:08 437.305
JAS-2 20 Dec 07:12:34 07:16:54 23° 298° (WNW) 07:20:58 435.910
PHONESAT 2.4 20 Dec 07:14:56 07:18:34 78° 186° (S) 07:22:12 2401.200-2431.200
CUTE-I 20 Dec 07:30:40 07:35:55 62° 288° (WNW) 07:41:08 437.470
SO-50 20 Dec 08:21:44 08:23:00 11° 254° (WSW) 08:24:16 436.795
Cubesat XI-IV 20 Dec 08:38:41 08:41:57 17° 299° (WNW) 08:45:13 437.490
GONETS M04 20 Dec 08:39:29 08:44:44 17° 300° (WNW) 08:50:01
DOVE 4 20 Dec 08:41:38 08:43:25 12° 90° (E) 08:45:13 437.250
VERMONT LUNAR 20 Dec 08:42:35 08:45:41 29° 205° (SSW) 08:48:46 437.305
